PSLV R/B, 40058

Orbit data source: Space-Track

PSLV R/B, 40058 is space debris in SSO originally from a launch on Mon, 30 Jun 2014 UTC launched from the Sirharikota (SRI). Debris objects in space refer to the collection of defunct objects orbiting the Earth. Examples of debris include non-operational satellites, rocket bodies, and fragments generated from explosions, collisions, or faulty payload assembly.

Loading next visibility...
Identifier
40058, 2014-034F
Orbit
SSO
Country
Flag of ININ / IND
Related business
Manufacturer
VSSC/LPSC
Mission
Spacecraft
Bus & Motor
PS-4, Unknown motor
Mass
920 kg wet, 920 kg dry
Launch date (UTC)
2014-06-30 (12 years ago)
Launch vehicle
Unknown
Launch site
Sirharikota (SRI)
Object type
Payload
Rocket body
Debris
Shape & HBR
Cyl + Cyl + 2 Nozzle, 1.5 m
Radar Cross Section
3.727 m², Large (>1 m²)

Expand to show TLE details & history
Last TLE update: 4 hours ago

TLE from 4 hours ago
0 PSLV R/B
1 40058U 14034F   26128.14872909  .00000594  00000-0  77736-4 0  9990
2 40058  98.2914 348.2907 0021505 103.2872 257.0741 14.84252260640135
Epoch: 2026-05-08T03:34Z
TLE epoch observation values (Epoch: 2026-05-08T03:34:10.193Z)
Latitude
-0.00003°
Longitude
68.76356°
Altitude
622.345 km
Speed
7.546 km/s
True Right ascension
23h 13m 09s
True Declination
0° 00' 00"
Sunlit
Object was in daylight at epoch
Visualization orbit readout
Latitude
Unknown
Longitude
Unknown
Altitude
Unknown
Speed
Unknown
Apparent Right ascension
Unknown
Apparent Declination
Unknown
Sunlit
N/A
Visualization observer readout
Local Sidereal Time
15:48:08
Azimuth
Unknown
Elevation
Unknown
Doppler factor
Unknown
Orbital elements
Apogee altitude
628.021 km
Perigee altitude
597.953 km
Semi-major axis
6,991.124 km
Eccentricity
0.00215
Inclination
98.2914°
RAAN
348.2907°
Arg. of periapsis
103.2872°
True anomaly
256.83406°
Mean anomaly
257.0741°
Eccentric anomaly
256.95407°
Mean motion
3.71298 °/min
Orbital period
96.96 mins
BSTAR
0.000077736
Loading maneuver chart data...
Computing Atmospheric mass density...
Loading historical data...
Loading historical data...
Loading historical data...
Loading historical data...
Loading historical data...
Loading historical data...
Loading historical data...
Other satellites on launch #34 in the year 2014 (2014-06-30 UTC)

Documentation

Showing up to 5 results
|